Weather History for KDRM - March, 2013

Change the Weather History Date:

Tuesday, March 19, 2013

  Actual Average (KCIU) Record (KCIU)
Temperature  
Mean Temperature 26 °F -  
Max Temperature 30 °F 37 °F 71 °F (2012)
Min Temperature 22 °F 10 °F -17 °F (1989)
Degree Days  
Heating Degree Days 38    
Moisture  
Dew Point 25 °F    
Average Humidity 90    
Maximum Humidity 100    
Minimum Humidity 74    
Precipitation  
Precipitation 0.00 in - - ()
Sea Level Pressure  
Sea Level Pressure 29.51 in    
Wind  
Wind Speed 9 mph (WSW)    
Max Wind Speed 15 mph    
Max Gust Speed 25 mph    
Visibility 4 miles    
Events Snow    
Averages and records for this station are not official NWS values.
T = Trace of Precipitation, MM = Missing Value Source: NWS Daily Summary

Daily Weather History Graph

Daily Weather History Graph

Search for Another Location

Airport or City:

Trip Planner

Search our weather history database for the weather conditions in past years. The results will help you decide how hot, cold, wet, or windy it might be!

Date:

Astronomy

Mar. 19, 2013 Rise Set
Actual Time 7:39 AM EDT 7:46 PM EDT
Civil Twilight 7:09 AM EDT 8:16 PM EDT
Nautical Twilight 6:34 AM EDT 8:51 PM EDT
Astronomical Twilight 5:58 AM EDT 9:27 PM EDT
Moon 12:11 PM EDT (3/19) 2:50 AM EDT (3/19)
Length of Visible Light 13h 06m
Length of Day
12h 07m
Waxing Crescent, 49% of the Moon is Illuminated
Mar 19
Waxing Crescent
Mar 19
First Quarter
Mar 27
Full
Apr 3
Last Quarter
Apr 10
New

Hourly Weather History & Observations

Time (EDT) Temp. Windchill Dew Point Humidity Pressure Visibility Wind Dir Wind Speed Gust Speed Precip Events Conditions
12:16 AM 28.8 °F 19.0 °F 28.0 °F 97% 29.50 in 2.0 mi ESE 11.5 mph 18.4 mph N/A Snow Light Snow
12:36 AM 29.1 °F 19.4 °F 28.2 °F 96% 29.49 in 2.5 mi ESE 11.5 mph 17.3 mph N/A Snow Light Snow
12:57 AM 29.3 °F 22.3 °F 28.4 °F 96% 29.47 in 2.5 mi ESE 6.9 mph - N/A Snow Light Snow
1:16 AM 29.3 °F 21.5 °F 28.8 °F 98% 29.46 in 2.0 mi ESE 8.1 mph - N/A Snow Light Snow
1:37 AM 29.3 °F 25.6 °F 28.8 °F 98% 29.45 in 2.0 mi ENE 3.5 mph - N/A Snow Light Snow
1:57 AM 28.2 °F 23.1 °F 27.7 °F 98% 29.44 in 2.0 mi East 4.6 mph - N/A Snow Light Snow
2:16 AM 28.0 °F - 27.5 °F 98% 29.43 in 2.0 mi Calm Calm - N/A Snow Light Snow
2:37 AM 28.0 °F - 27.5 °F 98% 29.42 in 2.0 mi Calm Calm - N/A Snow Light Snow
2:56 AM 27.9 °F 22.6 °F 27.5 °F 99% 29.42 in 1.8 mi ENE 4.6 mph - N/A Snow Light Snow
3:16 AM 28.0 °F - 27.5 °F 98% 29.41 in 2.5 mi Calm Calm - N/A Snow Light Snow
3:37 AM 28.4 °F - 28.0 °F 99% 29.40 in 1.5 mi Calm Calm - N/A Snow Light Snow
3:56 AM 29.1 °F - 29.1 °F 100% 29.40 in 4.0 mi Calm Calm - N/A Snow Light Snow
4:16 AM 30.2 °F 23.4 °F 30.2 °F 100% 29.40 in 4.0 mi SSW 6.9 mph - N/A Snow Light Snow
4:37 AM 30.2 °F 24.3 °F 30.2 °F 100% 29.40 in 3.0 mi SSW 5.8 mph - N/A Snow Light Snow
4:56 AM 30.2 °F 26.7 °F 30.0 °F 99% 29.40 in 3.0 mi SW 3.5 mph - N/A Snow Light Snow
5:16 AM 30.2 °F 25.4 °F 29.8 °F 99% 29.40 in 5.0 mi SSW 4.6 mph - N/A Snow Light Snow
5:37 AM 30.6 °F 25.8 °F 30.0 °F 98% 29.40 in 5.0 mi SW 4.6 mph - N/A Snow Light Snow
5:56 AM 30.6 °F 24.7 °F 30.0 °F 98% 29.40 in 5.0 mi SW 5.8 mph - N/A Snow Light Snow
6:17 AM 30.0 °F 21.7 °F 28.2 °F 93% 29.40 in 10.0 mi SW 9.2 mph - N/A   Overcast
6:37 AM 29.7 °F 22.8 °F 27.5 °F 92% 29.41 in 10.0 mi SW 6.9 mph - N/A   Overcast
6:56 AM 29.3 °F 22.3 °F 27.1 °F 92% 29.41 in 10.0 mi SW 6.9 mph - N/A Snow Light Snow
7:17 AM 29.5 °F 23.4 °F 27.3 °F 92% 29.42 in 10.0 mi SW 5.8 mph - N/A   Overcast
7:36 AM 28.2 °F 18.3 °F 25.9 °F 91% 29.43 in 1.2 mi SW 11.5 mph 19.6 mph N/A Snow Light Snow
8:17 AM 26.6 °F 14.7 °F 23.9 °F 90% 29.44 in 3.0 mi SW 15.0 mph 23.0 mph N/A Snow Light Snow
8:36 AM 25.7 °F 15.7 °F 23.9 °F 93% 29.45 in 1.2 mi SSW 10.4 mph 20.7 mph N/A Snow Light Snow
8:57 AM 25.5 °F 13.8 °F 23.5 °F 92% 29.45 in 1.5 mi SW 13.8 mph 21.9 mph N/A Snow Light Snow
9:17 AM 25.2 °F 12.9 °F 23.0 °F 91% 29.45 in 2.0 mi SSW 15.0 mph 24.2 mph N/A Snow Light Snow
9:36 AM 25.3 °F 13.1 °F 22.6 °F 89% 29.46 in 3.0 mi SSW 15.0 mph 21.9 mph N/A Snow Light Snow
9:57 AM 24.8 °F 12.4 °F 22.6 °F 91% 29.46 in 1.5 mi SW 15.0 mph 21.9 mph N/A Snow Light Snow
10:17 AM 25.2 °F 13.3 °F 22.6 °F 90% 29.46 in 1.8 mi SW 13.8 mph 21.9 mph N/A Snow Light Snow
10:36 AM 25.5 °F 14.3 °F 22.6 °F 89% 29.46 in 2.5 mi SW 12.7 mph 20.7 mph N/A   Overcast
10:57 AM 25.5 °F 14.9 °F 23.0 °F 90% 29.46 in 1.8 mi SW 11.5 mph 20.7 mph N/A Snow Light Snow
11:16 AM 26.2 °F 17.8 °F 23.0 °F 88% 29.46 in 4.0 mi WSW 8.1 mph 17.3 mph N/A   Overcast
11:36 AM 26.4 °F 15.5 °F 22.1 °F 84% 29.46 in 7.0 mi SW 12.7 mph 23.0 mph N/A   Overcast
11:57 AM 27.3 °F 17.7 °F 23.0 °F 84% 29.46 in 7.0 mi WSW 10.4 mph 21.9 mph N/A   Overcast
12:16 PM 28.6 °F 18.2 °F 22.3 °F 77% 29.46 in 5.0 mi WSW 12.7 mph 24.2 mph N/A   Haze
12:36 PM 29.3 °F 18.6 °F 21.9 °F 74% 29.47 in 5.0 mi WSW 13.8 mph 25.3 mph N/A   Haze
12:57 PM 29.3 °F 20.2 °F 22.6 °F 76% 29.48 in 7.0 mi WSW 10.4 mph 24.2 mph N/A   Overcast
1:16 PM 29.7 °F 19.6 °F 23.4 °F 77% 29.48 in 7.0 mi WSW 12.7 mph 21.9 mph N/A   Overcast
1:37 PM 29.3 °F 19.1 °F 23.4 °F 78% 29.49 in 5.0 mi WSW 12.7 mph 24.2 mph N/A   Haze
2:17 PM 28.2 °F 19.5 °F 24.1 °F 84% 29.50 in 1.8 mi WSW 9.2 mph 21.9 mph N/A Snow Light Snow
2:37 PM 28.4 °F 18.5 °F 25.2 °F 88% 29.51 in 1.2 mi WSW 11.5 mph 19.6 mph N/A Snow Light Snow
2:56 PM 28.8 °F 17.5 °F 25.5 °F 88% 29.51 in 1.5 mi WSW 15.0 mph 24.2 mph N/A Snow Light Snow
3:17 PM 28.6 °F 17.7 °F 25.9 °F 90% 29.52 in 1.2 mi WSW 13.8 mph 21.9 mph N/A Snow Light Snow
3:36 PM 28.8 °F 18.4 °F 25.7 °F 88% 29.53 in 1.2 mi WSW 12.7 mph 23.0 mph N/A Snow Light Snow
3:57 PM 28.9 °F 19.2 °F 26.1 °F 89% 29.53 in 1.2 mi WSW 11.5 mph 21.9 mph N/A Snow Light Snow
4:17 PM 28.8 °F 18.4 °F 25.7 °F 88% 29.55 in 1.5 mi WSW 12.7 mph 21.9 mph N/A Snow Light Snow
4:36 PM 28.8 °F 19.0 °F 26.2 °F 90% 29.55 in 1.0 mi WSW 11.5 mph 24.2 mph N/A Snow Light Snow
4:57 PM 28.6 °F 18.7 °F 25.9 °F 90% 29.56 in 1.5 mi WSW 11.5 mph 21.9 mph N/A Snow Light Snow
5:16 PM 28.4 °F 18.5 °F 25.7 °F 90% 29.57 in 2.0 mi WSW 11.5 mph 23.0 mph N/A Snow Light Snow
5:36 PM 28.2 °F 16.8 °F 25.5 °F 90% 29.58 in 2.0 mi WSW 15.0 mph 23.0 mph N/A Snow Light Snow
5:57 PM 28.2 °F 19.5 °F 25.7 °F 90% 29.58 in 1.5 mi WSW 9.2 mph 19.6 mph N/A Snow Light Snow
6:16 PM 28.0 °F 17.0 °F 25.7 °F 91% 29.60 in 2.5 mi WSW 13.8 mph 25.3 mph N/A Snow Light Snow
6:36 PM 27.5 °F 18.0 °F 25.5 °F 92% 29.60 in 1.2 mi WSW 10.4 mph 24.2 mph N/A Snow Light Snow
6:57 PM 28.2 °F 18.9 °F 26.6 °F 94% 29.61 in 1.2 mi WSW 10.4 mph 21.9 mph N/A Snow Light Snow
7:16 PM 28.4 °F 18.0 °F 26.6 °F 93% 29.61 in 2.0 mi WSW 12.7 mph 18.4 mph N/A Snow Light Snow
7:37 PM 28.4 °F 20.4 °F 26.6 °F 93% 29.63 in 4.0 mi West 8.1 mph - N/A Snow Light Snow
7:57 PM 28.4 °F 22.2 °F 26.4 °F 92% 29.64 in 2.5 mi West 5.8 mph - N/A Snow Light Snow
8:16 PM 28.8 °F 20.9 °F 26.4 °F 91% 29.65 in 4.0 mi West 8.1 mph 17.3 mph N/A Snow Light Snow
8:37 PM 28.2 °F 20.2 °F 25.7 °F 90% 29.66 in 2.0 mi West 8.1 mph - N/A Snow Light Snow
8:56 PM 27.5 °F 18.6 °F 25.2 °F 91% 29.67 in 3.0 mi West 9.2 mph - N/A Snow Light Snow
9:16 PM 27.0 °F 18.0 °F 23.4 °F 86% 29.68 in 10.0 mi West 9.2 mph - N/A   Overcast
9:36 PM 26.4 °F 17.3 °F 21.9 °F 83% 29.69 in 10.0 mi West 9.2 mph - N/A   Overcast
9:56 PM 26.1 °F 17.6 °F 20.8 °F 81% 29.69 in 10.0 mi West 8.1 mph 17.3 mph N/A   Mostly Cloudy
10:17 PM 25.3 °F 16.0 °F 20.1 °F 81% 29.70 in 10.0 mi West 9.2 mph - N/A   Clear
10:36 PM 25.2 °F 16.5 °F 19.4 °F 79% 29.70 in 10.0 mi West 8.1 mph - N/A   Mostly Cloudy
10:56 PM 24.4 °F 15.6 °F 19.0 °F 80% 29.70 in 10.0 mi West 8.1 mph - N/A   Scattered Clouds
11:17 PM 23.9 °F 18.0 °F 18.9 °F 81% 29.70 in 10.0 mi West 4.6 mph - N/A   Clear
11:36 PM 23.0 °F 15.8 °F 18.7 °F 84% 29.71 in 10.0 mi WSW 5.8 mph - N/A   Clear
11:56 PM 22.5 °F 15.1 °F 18.3 °F 84% 29.71 in 10.0 mi West 5.8 mph - N/A   Clear